Weather History for Lawrence, KS

Change the Weather History Date:

Saturday, January 19, 2013

  Actual Average Record
Temperature  
Mean Temperature 48 °F 29 °F  
Max Temperature 63 °F 40 °F 65 °F (2014)
Min Temperature 33 °F 18 °F -2 °F (2008)
Degree Days  
Heating Degree Days 17 36  
Month to date heating degree days 616 684  
Since 1 July heating degree days 2556 2727  
Cooling Degree Days 0 0  
Month to date cooling degree days 0 0  
Year to date cooling degree days 0 0  
Moisture  
Dew Point 28 °F    
Average Humidity 48    
Maximum Humidity 70    
Minimum Humidity 25    
Precipitation  
Precipitation 0.00 in 0.03 in 0.13 in (2011)
Month to date precipitation 0.53 0.56  
Year to date precipitation 0.53 0.56  
Sea Level Pressure  
Sea Level Pressure 30.08 in    
Wind  
Wind Speed 10 mph (West)    
Max Wind Speed 21 mph    
Max Gust Speed 28 mph    
Visibility 10 miles    
Events      
T = Trace of Precipitation, MM = Missing Value Source: NWS Daily Summary

Daily Weather History Graph

Daily Weather History Graph

Search for Another Location

Airport:

Trip Planner

Search our weather history database for the weather conditions in past years. The results will help you decide how hot, cold, wet, or windy it might be!

Date:

Astronomy

Jan. 19, 2013 Rise Set
Actual Time 7:36 AM CST 5:27 PM CST
Civil Twilight 7:07 AM CST 5:56 PM CST
Nautical Twilight 6:34 AM CST 6:29 PM CST
Astronomical Twilight 6:02 AM CST 7:00 PM CST
Moon 11:53 AM CST (1/19) 1:12 AM CST (1/19)
Length of Visible Light 10h 49m
Length of Day
9h 51m
First Quarter, 57% of the Moon is Illuminated
Jan 19
First Quarter
Jan 26
Full
Feb 3
Last Quarter
Feb 10
New
Feb 17
First Quarter

Hourly Weather History & Observations

Time (CST) Temp. Windchill Dew Point Humidity Pressure Visibility Wind Dir Wind Speed Gust Speed Precip Events Conditions
12:52 AM 45.0 °F 38.9 °F 28.9 °F 53% 30.02 in 10.0 mi SSW 12.7 mph - N/A   Clear
1:52 AM 45.0 °F 37.9 °F 28.9 °F 53% 30.01 in 10.0 mi SSW 16.1 mph 23.0 mph N/A   Clear
2:52 AM 44.1 °F 37.7 °F 28.9 °F 55% 30.02 in 10.0 mi SSW 12.7 mph - N/A   Clear
3:52 AM 43.0 °F 37.7 °F 30.0 °F 60% 30.00 in 10.0 mi SSW 9.2 mph - N/A   Clear
4:52 AM 43.0 °F 37.7 °F 30.0 °F 60% 29.99 in 10.0 mi SW 9.2 mph - N/A   Clear
5:52 AM 42.1 °F 36.6 °F 30.0 °F 62% 29.99 in 10.0 mi SW 9.2 mph - N/A   Clear
6:52 AM 39.9 °F 34.5 °F 28.9 °F 65% 30.00 in 10.0 mi SW 8.1 mph - N/A   Clear
7:52 AM 39.9 °F 35.1 °F 30.0 °F 68% 30.01 in 10.0 mi WSW 6.9 mph - N/A   Clear
8:52 AM 42.1 °F 34.9 °F 30.0 °F 62% 30.02 in 10.0 mi SW 13.8 mph 17.3 mph N/A   Clear
9:52 AM 46.0 °F 41.4 °F 30.0 °F 54% 30.05 in 10.0 mi WSW 9.2 mph - N/A   Clear
10:52 AM 51.1 °F - 30.0 °F 44% 30.07 in 10.0 mi West 12.7 mph - N/A   Clear
11:52 AM 55.0 °F - 28.9 °F 37% 30.05 in 10.0 mi WNW 11.5 mph - N/A   Clear
12:52 PM 57.9 °F - 26.1 °F 30% 30.03 in 10.0 mi WNW 8.1 mph - N/A   Clear
1:52 PM 59.0 °F - 28.0 °F 31% 30.03 in 10.0 mi West 9.2 mph - N/A   Clear
2:52 PM 61.0 °F - 27.0 °F 27% 30.02 in 10.0 mi West 11.5 mph - N/A   Clear
3:52 PM 62.1 °F - 27.0 °F 26% 30.03 in 10.0 mi West 8.1 mph - N/A   Clear
4:52 PM 61.0 °F - 24.1 °F 24% 30.06 in 10.0 mi NW 18.4 mph 27.6 mph N/A   Clear
5:52 PM 53.1 °F - 26.1 °F 35% 30.11 in 10.0 mi WNW 9.2 mph - N/A   Clear
6:52 PM 42.1 °F 39.2 °F 25.0 °F 51% 30.15 in 10.0 mi NNW 4.6 mph - N/A   Clear
7:52 PM 39.0 °F 34.8 °F 25.0 °F 57% 30.19 in 10.0 mi NNW 5.8 mph - N/A   Clear
8:52 PM 45.0 °F 43.5 °F 27.0 °F 49% 30.22 in 10.0 mi West 3.5 mph - N/A   Clear
9:52 PM 36.0 °F 31.1 °F 25.0 °F 64% 30.24 in 10.0 mi NNW 5.8 mph - N/A   Clear
10:52 PM 43.0 °F 36.8 °F 28.0 °F 56% 30.25 in 10.0 mi North 11.5 mph - N/A   Clear
11:52 PM 37.9 °F 33.5 °F 26.1 °F 62% 30.27 in 10.0 mi NNW 5.8 mph - N/A   Clear